Location: Hilton Head Island
(32.2163°N, 80.7526°W)
Time: 12:21:23
(UTC-04:00)

Explorer 7 - Pass Details

Date: 21 February 2026
Orbit: 430 x 541 km, 50.2° (Epoch: 12 March)

Event Time Altitude Azimuth Distance (km) Brightness Sun altitude
Rises 21:28:07 0° 300° (WNW) 2,578 11.1 -41.4°
Enters shadow 21:28:42 - 298° (WNW) 2,355 10.8 -41.5°
Reaches altitude 10° 21:30:29 10° 287° (WNW) 1,714 - -41.9°
Maximum altitude 21:33:47 26° 229° (SW) 1,025 - -42.6°
Drops below altitude 10° 21:37:11 10° 171° (S) 1,757 - -43.2°
Sets 21:39:39 0° 159° (SSE) 2,658 - -43.7°
